TimeCST,TemperatureF,Dew PointF,Humidity,Sea Level PressureIn,VisibilityMPH,Wind Direction,Wind SpeedMPH,Gust SpeedMPH,PrecipitationIn,Events,Conditions,WindDirDegrees,DateUTC
12:52 AM,28.0,16.0,61,30.11,10.0,NNW,12.7,-,N/A,,Scattered Clouds,340,2013-12-05 06:52:00
1:52 AM,28.0,14.0,56,30.13,10.0,North,15.0,25.3,N/A,,Overcast,350,2013-12-05 07:52:00
2:52 AM,27.0,12.9,56,30.16,10.0,North,19.6,-,N/A,,Overcast,350,2013-12-05 08:52:00
3:52 AM,26.1,12.9,58,30.19,10.0,North,13.8,23.0,N/A,,Overcast,350,2013-12-05 09:52:00
4:52 AM,24.1,12.9,62,30.23,10.0,North,16.1,-,N/A,,Overcast,360,2013-12-05 10:52:00
5:52 AM,23.0,10.9,60,30.25,10.0,North,18.4,23.0,N/A,,Clear,360,2013-12-05 11:52:00
6:52 AM,21.9,10.9,63,30.25,10.0,North,16.1,23.0,N/A,,Clear,10,2013-12-05 12:52:00
7:52 AM,21.9,10.9,63,30.28,10.0,North,11.5,-,N/A,,Clear,360,2013-12-05 13:52:00
8:52 AM,23.0,10.0,58,30.30,10.0,North,10.4,-,N/A,,Clear,10,2013-12-05 14:52:00
9:52 AM,24.1,10.0,55,30.30,10.0,NNE,9.2,-,N/A,,Clear,20,2013-12-05 15:52:00
10:52 AM,25.0,9.0,51,30.33,10.0,North,15.0,-,N/A,,Clear,350,2013-12-05 16:52:00
11:52 AM,25.0,9.0,51,30.31,10.0,NNW,13.8,-,N/A,,Clear,340,2013-12-05 17:52:00
12:52 PM,25.0,9.0,51,30.27,10.0,North,13.8,-,N/A,,Mostly Cloudy,10,2013-12-05 18:52:00
1:52 PM,24.1,8.1,51,30.27,10.0,North,12.7,-,N/A,,Overcast,360,2013-12-05 19:52:00
2:52 PM,24.1,7.0,48,30.27,10.0,North,13.8,-,N/A,,Overcast,350,2013-12-05 20:52:00
3:52 PM,23.0,7.0,50,30.29,10.0,North,11.5,-,N/A,,Overcast,360,2013-12-05 21:52:00
4:52 PM,23.0,8.1,53,30.32,10.0,North,12.7,-,N/A,,Overcast,10,2013-12-05 22:52:00
5:52 PM,23.0,8.1,53,30.31,10.0,North,10.4,-,N/A,,Overcast,360,2013-12-05 23:52:00
6:52 PM,23.0,9.0,55,30.33,10.0,North,11.5,-,N/A,,Overcast,10,2013-12-06 00:52:00
7:52 PM,21.9,10.0,60,30.32,10.0,NNE,10.4,-,N/A,,Overcast,20,2013-12-06 01:52:00
8:52 PM,21.9,10.9,63,30.32,10.0,North,13.8,-,N/A,,Overcast,360,2013-12-06 02:52:00
9:52 PM,23.0,8.1,53,30.37,10.0,North,12.7,-,N/A,,Overcast,350,2013-12-06 03:52:00
10:52 PM,21.9,10.0,60,30.35,10.0,North,12.7,-,N/A,,Overcast,360,2013-12-06 04:52:00
11:52 PM,23.0,9.0,55,30.38,10.0,North,12.7,-,N/A,,Overcast,360,2013-12-06 05:52:00